Location: Stockholm
(59.3330°N, 18.0500°E)
Time: 18:28:06
(UTC+01:00)

BlueWalker 3 - Visible Passes

Search period start: 08 December 2022 00:00
Search period end: 18 December 2022 00:00
Orbit: 501 x 518 km, 53.2° (Epoch: 08 December)

Date Brightness Start Highest point End Pass type
(mag) Time Alt. Az. Time Alt. Az. Time Alt. Az.
08 Dec 3.9 16:49:07 10° WSW 16:52:28 27° SSW 16:55:49 10° SE visible
08 Dec 4.8 18:28:33 10° WSW 18:30:13 12° SW 18:31:50 10° SSW visible
09 Dec 4.0 16:30:42 10° WSW 16:34:02 27° SSW 16:37:21 10° SE visible
09 Dec 4.9 18:10:15 10° WSW 18:11:46 12° SW 18:13:15 10° SSW visible
10 Dec 4.1 16:12:16 10° WSW 16:15:35 26° SSW 16:18:53 10° SE visible
10 Dec 5.0 17:51:58 10° WSW 17:53:17 11° SW 17:54:37 10° SSW visible
11 Dec 4.2 15:53:51 10° WSW 15:57:08 26° SSW 16:00:25 10° SE visible
11 Dec 5.1 17:33:43 10° SW 17:34:49 11° SW 17:35:55 10° SSW visible
12 Dec 5.3 17:15:31 10° SW 17:16:21 11° SW 17:17:10 10° SSW visible
13 Dec 5.5 16:57:31 10° SW 16:57:52 10° SW 16:58:13 10° SW visible
